GEOSCAN 5 (RS92S5)

Last updated on Tue Aug 25 2026 00:03:14 GMT+0000 (Coordinated Universal Time)

1 64891U 25155R 26236.56455688 .00013599 00000+0 40311-3 0 9990 2 64891 97.4603 206.6544 0003944 315.7252 44.3675 15.34959376 91305
UTC large
Height (km)
Speed (km/s)
/
Latitude / Longitude
Inclination (degrees)
Orbital Period (minutes)
Azimuth
Elevation
Range (km)
Doppler Factor

Next 0 passes for location: London (51.5072 / 0.1276)

No passes found over London.
GEOSCAN 5 (RS92S5)